Weather History for Akron, CO

Change the Weather History Date:

Sunday, August 18, 2013

  Actual Average Record
Temperature  
Mean Temperature 74 °F 72 °F  
Max Temperature 87 °F 86 °F 100 °F (1938)
Min Temperature 61 °F 58 °F 47 °F (1968)
Degree Days  
Heating Degree Days 0    
Month to date heating degree days 2  
Cooling Degree Days 9    
Month to date cooling degree days 107  
Growing Degree Days 24 (Base 50)    
Moisture  
Dew Point 60 °F    
Average Humidity 72    
Maximum Humidity 100    
Minimum Humidity 43    
Precipitation  
Precipitation 0.55 in 0.07 in 1.55 in (1979)
Month to date precipitation 2.40 1.51  
Year to date precipitation 11.41 12.70  
Sea Level Pressure  
Sea Level Pressure 30.02 in    
Wind  
Wind Speed 15 mph (South)    
Max Wind Speed 41 mph    
Max Gust Speed 59 mph    
Visibility 5 miles    
Events Rain , Thunderstorm    
T = Trace of Precipitation, MM = Missing Value Source: NWS Daily Summary

Daily Weather History Graph

Daily Weather History Graph

Search for Another Location

Airport:

Trip Planner

Search our weather history database for the weather conditions in past years. The results will help you decide how hot, cold, wet, or windy it might be!

Date:

Astronomy

Aug. 18, 2013 Rise Set
Actual Time 6:07 AM MDT 7:45 PM MDT
Civil Twilight 5:38 AM MDT 8:13 PM MDT
Nautical Twilight 5:03 AM MDT 8:48 PM MDT
Astronomical Twilight 4:26 AM MDT 9:25 PM MDT
Moon 5:53 PM MDT (8/18) 3:19 AM MDT (8/18)
Length of Visible Light 14h 35m
Length of Day
13h 37m
Waxing Gibbous, 92% of the Moon is Illuminated
Aug 18
Waxing Gibbous
Aug 20
Full
Aug 28
Last Quarter
Sep 5
New
Sep 12
First Quarter

Hourly Weather History & Observations

Time (MDT) Temp. Heat Index Dew Point Humidity Pressure Visibility Wind Dir Wind Speed Gust Speed Precip Events Conditions
12:53 AM 64.9 °F - 64.0 °F 97% 29.95 in 6.0 mi South 17.3 mph 24.2 mph N/A   Clear
1:53 AM 64.9 °F - 63.0 °F 93% 29.94 in 7.0 mi South 11.5 mph 21.9 mph N/A   Clear
2:53 AM 63.0 °F - 62.1 °F 97% 29.92 in 5.0 mi SSE 12.7 mph 20.7 mph N/A   Clear
3:13 AM 62.6 °F - 62.6 °F 100% 30.09 in 4.0 mi South 11.5 mph - N/A   Scattered Clouds
3:53 AM 63.0 °F - 62.1 °F 97% 29.91 in 4.0 mi South 15.0 mph - N/A   Clear
4:53 AM 63.0 °F - 62.1 °F 97% 29.91 in 4.0 mi South 19.6 mph 25.3 mph N/A   Partly Cloudy
5:06 AM 62.6 °F - 62.6 °F 100% 30.08 in 4.0 mi South 15.0 mph 24.2 mph N/A   Mostly Cloudy
5:53 AM 63.0 °F - 62.1 °F 97% 29.92 in 3.0 mi South 20.7 mph 25.3 mph N/A   Overcast
6:04 AM 62.6 °F - 62.6 °F 100% 30.09 in 2.5 mi South 20.7 mph 26.5 mph N/A   Overcast
6:15 AM 62.6 °F - 62.6 °F 100% 30.09 in 1.2 mi South 18.4 mph 25.3 mph N/A   Overcast
6:23 AM 62.6 °F - 62.6 °F 100% 30.09 in 1.0 mi South 18.4 mph 25.3 mph N/A   Overcast
6:32 AM 62.6 °F - 62.6 °F 100% 30.09 in 1.2 mi South 12.7 mph 23.0 mph N/A   Overcast
6:43 AM 62.6 °F - 62.6 °F 100% 30.09 in 0.8 mi South 12.7 mph 24.2 mph N/A   Overcast
6:53 AM 63.0 °F - 62.1 °F 97% 29.94 in 0.8 mi SSE 11.5 mph 21.9 mph N/A   Overcast
6:56 AM 62.6 °F - 62.6 °F 100% 30.10 in 1.2 mi South 10.4 mph - N/A   Overcast
7:04 AM 62.6 °F - 62.6 °F 100% 30.10 in 0.8 mi SSE 11.5 mph - N/A   Overcast
7:22 AM 62.6 °F - 62.6 °F 100% 30.10 in 1.0 mi South 11.5 mph - N/A   Overcast
7:30 AM 62.6 °F - 62.6 °F 100% 30.11 in 0.8 mi SSE 10.4 mph - N/A   Overcast
7:35 AM 64.4 °F - 62.6 °F 94% 30.11 in 1.2 mi South 9.2 mph - N/A   Overcast
7:39 AM 64.4 °F - 62.6 °F 94% 30.11 in 2.0 mi South 10.4 mph - N/A   Overcast
7:53 AM 64.0 °F - 63.0 °F 96% 29.96 in 2.5 mi South 10.4 mph - N/A   Overcast
8:16 AM 64.4 °F - 62.6 °F 94% 30.11 in 3.0 mi SSE 11.5 mph - N/A   Mostly Cloudy
8:43 AM 66.2 °F - 64.4 °F 94% 30.11 in 5.0 mi SE 13.8 mph - N/A   Scattered Clouds
8:53 AM 68.0 °F - 64.0 °F 87% 29.96 in 6.0 mi SSE 11.5 mph - N/A   Partly Cloudy
9:53 AM 73.9 °F - 64.0 °F 71% 29.94 in 10.0 mi SSE 11.5 mph - N/A   Clear
10:53 AM 78.1 °F - 64.0 °F 62% 29.94 in 10.0 mi South 10.4 mph - N/A   Clear
11:53 AM 82.0 °F 83.4 °F 64.0 °F 54% 29.92 in 10.0 mi SSE 10.4 mph - N/A   Clear
12:53 PM 84.9 °F 85.9 °F 63.0 °F 48% 29.90 in 10.0 mi South 12.7 mph - N/A   Clear
1:53 PM 84.9 °F 86.1 °F 64.0 °F 49% 29.89 in 10.0 mi SSE 17.3 mph 23.0 mph N/A   Clear
2:53 PM 87.1 °F 87.5 °F 62.1 °F 43% 29.88 in 10.0 mi SE 11.5 mph 23.0 mph N/A   Clear
3:53 PM 84.9 °F 85.4 °F 62.1 °F 46% 29.88 in 10.0 mi SSE 17.3 mph 25.3 mph N/A   Clear
4:53 PM 84.0 °F 84.5 °F 62.1 °F 47% 29.87 in 10.0 mi SE 19.6 mph 28.8 mph N/A   Clear
5:31 PM 78.8 °F - 62.6 °F 57% 30.07 in 10.0 mi SSE 11.5 mph 21.9 mph N/A Thunderstorm Clear
5:53 PM 77.0 °F - 63.0 °F 62% 29.94 in 10.0 mi North 12.7 mph 18.4 mph N/A Thunderstorm Thunderstorm
6:12 PM 66.2 °F - 55.4 °F 68% 30.15 in 4.0 mi West 38.0 mph 58.7 mph 0.06 in Rain , Thunderstorm Thunderstorms and Rain
6:16 PM 64.4 °F - 57.2 °F 77% 30.17 in 1.8 mi West 31.1 mph 58.7 mph 0.15 in Rain , Thunderstorm Heavy Thunderstorms and Rain
6:23 PM 62.6 °F - 57.2 °F 82% 30.20 in 1.2 mi SW 21.9 mph 43.7 mph 0.31 in Rain , Thunderstorm Heavy Thunderstorms and Rain
6:25 PM 62.6 °F - 57.2 °F 82% 30.19 in 1.5 mi SSW 18.4 mph 43.7 mph 0.36 in Rain , Thunderstorm Heavy Thunderstorms and Rain
6:33 PM 66.2 °F - 53.6 °F 64% 30.15 in 1.5 mi South 21.9 mph 29.9 mph 0.49 in Rain , Thunderstorm Heavy Thunderstorms and Rain
6:41 PM 66.2 °F - 55.4 °F 68% 30.12 in 3.0 mi South 23.0 mph 38.0 mph 0.54 in Rain , Thunderstorm Heavy Thunderstorms and Rain
6:53 PM 69.1 °F - 54.0 °F 58% 29.99 in 10.0 mi South 23.0 mph - 0.55 in Rain , Thunderstorm Light Rain
7:07 PM 71.6 °F - 55.4 °F 57% 30.13 in 10.0 mi SSE 12.7 mph 24.2 mph 0.00 in   Scattered Clouds
7:53 PM 71.1 °F - 54.0 °F 55% 29.97 in 10.0 mi South 16.1 mph 25.3 mph 0.00 in   Clear
8:53 PM 71.1 °F - 52.0 °F 51% 29.99 in 10.0 mi South 13.8 mph 24.2 mph N/A   Clear
9:53 PM 71.1 °F - 50.0 °F 47% 29.98 in 10.0 mi South 17.3 mph 26.5 mph N/A   Clear
10:53 PM 64.9 °F - 52.0 °F 63% 29.99 in 10.0 mi ENE 10.4 mph - N/A   Clear
11:53 PM 63.0 °F - 53.1 °F 70% 29.99 in 10.0 mi East 9.2 mph - N/A   Clear